Dauntless Aviation
Airports Europe United Kingdom
EGPY

Dounreay Thurso

UNITED KINGDOM

Airport Info
Suggest Updated Information for this Airport

Location

Latitude / Longitude: 58°35'3"N / 3°43'31"W
  58°35.052'N / 3°43.518'W
  58.5842 / -3.7253

Runway Information

Runway 04 /22

Dimensions: 3300 x 100 ft.
Surface: U
 
Runway 04
Runway 22
Latitude: 58.579444 58.586944
Longitude: -3.731389 -3.721667
Elevation: 130 ft. 130 ft.
Runway true heading: 33.4 213.4
 
Satellite photo at:
Airport distance calculator
From:
Weather Reports

METAR

EGPC
22.2nm E
EGPC 232320Z AUTO 33019KT 9999 FEW012/// 04/02 Q1011
EGPA
34.2nm NE
EGPA 232320Z AUTO 36020KT 9999 -RA FEW016/// SCT023/// BKN028/// 05/02 Q1011

TAF

EGPC
22.2nm E
TAF EGPC 231959Z 2321/2406 26022G32KT 9999 SCT012 BKN030 BECMG 2321/2324 35014KT TEMPO 2321/2324 7000 RA BKN012 PROB40 TEMPO 2400/2406 36017G27KT 7000 SHRASN BKN012
EGPA
34.2nm NE
TAF EGPA 231959Z 2321/2406 26025G35KT 9999 SCT012 BKN025 BECMG 2321/2324 36014KT PROB30 TEMPO 2321/2406 01017G27KT 7000 SHRA BKN008 PROB40 TEMPO 2403/2406 VRB05KT
Safelog

 

Dauntless Aviation

© 2007-2017 Dauntless Aviation, all rights reserved
Information provided via PilotNav comes from a variety of official and unofficial data sources. As errors are possible, do not use PilotNav for primary flight planning purposes. Verify any information that you receive via PilotNav with current and canonical charts and other official documents. The material in this database is subject to database copyrights held by Dauntless Aviation and may not be copied without the express permission of Dauntless Aviation - licenses for use of part of all of this data are available for purchase; enquire via the Dauntless Aviation helpdesk. A number of mechanisms and markers exist in the database to protect against and identify infringement / copyright. Automated queries against this website are stictly prohibited, and all activity is logged and analyzed.